Regional Weather Roundup
Issued by NWS

Home | Current Version | Previous Version | Graphics & Text | Print | Product List | Glossary On
Versions: 1 2 3 4 5 6 7 8 9 10 11 12 13 14 15 16 17 18 19 20 21 22 23 24 25 26 27 28 29 30 31 32 33 34 35 36 37 38 39 40 41 42 43 44 45 46 47 48 49 50
000
ASUS43 KMPX 241601
RWRMN
WEATHER ROUNDUP FOR MINNESOTA
NATIONAL WEATHER SERVICE TWIN CITIES/CHANHASSEN MN
1100 AM CDT THU APR 24 2014


NOTE: "FAIR" INDICATES FEW OR NO CLOUDS BELOW 12,000 FEET WITH NO
SIGNIFICANT WEATHER AND/OR OBSTRUCTIONS TO VISIBILITY. N/A MEANS
CURRENT SKY AND/OR WEATHER CONDITIONS ARE NOT AVAILABLE.

MNZ060>063-068>070-241700-
   Twin Cities Metro

CITY           SKY/WX    TMP DP  RH WIND       PRES   REMARKS
TWIN CITIES    LGT RAIN  40  40 100 E10       29.75F FOG
ST PAUL        LGT RAIN  41  39  93 E8        29.77F FOG
CRYSTAL        RAIN      41  38  89 E7        29.75F FOG
BLAINE         LGT RAIN  41  41 100 E9        29.77  FOG
EDEN PRAIRIE   RAIN      41  39  93 E9        29.73F FOG
LAKEVILLE      RAIN      39  37  93 E8        29.73F
SOUTH ST PAUL  LGT RAIN  42  41  95 E5        29.76F
LAKE ELMO      RAIN      41  39  93 E6        29.78F
$$
MNZ001>005-007-008-013>017-022>024-027-028-241700-
   Northwest Minnesota

CITY           SKY/WX    TMP DP  RH WIND       PRES   REMARKS
BEMIDJI        CLOUDY    37  36  98 E8        29.79S FOG
HALLOCK        DRIZZLE   39  37  93 SE10      29.76F
ROSEAU         LGT RAIN  39  34  81 SE10      29.80S
WARROAD        MIX PCPN  37  34  87 SE10      29.82S
THIEF RVR FALL CLOUDY    37  36  93 SE10      29.79S
CROOKSTON      MIX PCPN  39  39 100 SE10      29.78S
FOSSTON        RAIN      37  36  93 SE6       29.79R
DETROIT LAKES  RAIN      39  37  93 SE5       29.78S
MOORHEAD       LGT RAIN  43  43 100 SE3       29.77F
PARK RAPIDS    RAIN      38  38 100 SE9       29.78R FOG
$$
MNZ006-009>011-018-025>026-241700-
   North Central Minnesota

CITY           SKY/WX    TMP DP  RH WIND       PRES   REMARKS
BAUDETTE       LGT RAIN  39  37  92 SE10      29.83F
FLAG ISLAND    LGT RAIN  37  36  93 E10       29.83S
INTL FALLS     LGT RAIN  39  36  89 SE13      29.87S FOG
WASKISH        DRIZZLE   37  37 100 E8        29.82S
BIG FORK       CLOUDY    37  36  93 E9        29.83F
LONGVILLE      CLOUDY    37  37 100 E3        29.79S FOG
GRAND RAPIDS   CLOUDY    36  34  93 SE13      29.82F
CRANE LAKE     CLOUDY    37  37 100 SE6       29.92S
ORR            DRIZZLE   37  34  87 SE9       29.85S
COOK           LGT RAIN  37  34  87 SE7G20    29.88S
$$
MNZ012-019>021-037-241700-
   Northeast Minnesota

CITY           SKY/WX    TMP DP  RH WIND       PRES   REMARKS
DULUTH         LGT SNOW  34  32  92 E14       29.87F VSB 3/4 WCI  25
ELY            MIX PCPN  37  34  87 SE16G23   29.91F
HIBBING        CLOUDY    37  34  89 SE12      29.85F
EVELETH        CLOUDY    36  36 100 E7G16     29.88F
DULUTH HARBOR  MIX PCPN  34  32  93 NE15      29.91F WCI  24
TWO HARBORS    RAIN      34  30  86 E16       29.90F WCI  23
SILVER BAY     LGT RAIN  34  34 100 NE9       29.94S WCI  26
GRAND MARAIS     N/A     37  28  70 E15       30.01F
G MARAIS ARPRT CLOUDY    37  25  60 E12G21    29.98S
$$
MNZ029>031-032-039>041-046>048-054>057-064-241700-
   West Central Minnesota

CITY           SKY/WX    TMP DP  RH WIND       PRES   REMARKS
FERGUS FALLS   RAIN      41  39  93 SE8       29.74F
WHEATON        RAIN      43  43 100 E3        29.78F
MORRIS         RAIN      43  41  93 NE3       29.75F
ALEXANDRIA     LGT RAIN  41  39  93 S5        29.76F FOG
ELBOW LAKE     RAIN      40  39  99 SE6       29.76S
WADENA         RAIN      39  37  93 SE7       29.77S
GLENWOOD       LGT RAIN  39  39 100 CALM      29.75F
APPLETON       LGT RAIN  45  43  93 NE5       29.75S
BENSON         LGT RAIN  43  41  93 CALM      29.75F
ORTONVILLE     LGT RAIN  41  39  93 N6        29.74F
MADISON        LGT RAIN  46  45  93 N6        29.74F
WILLMAR        LGT RAIN  43  41  93 E7        29.75S
$$
MNZ033>034-036-042>043-049>051-058-059-241700-
   Central Minnesota

CITY           SKY/WX    TMP DP  RH WIND       PRES   REMARKS
ST CLOUD       LGT RAIN  41  38  89 E8        29.76F
SAUK CENTRE    LGT RAIN  40  39  95 SE8       29.76S
PAYNESVILLE    RAIN      40  39  96 CALM      29.75F
AITKIN         DRIZZLE   39  36  87 SE9       29.79S
PINE RIVER     CLOUDY    39  37  93 SE10      29.82S FOG
BRAINERD       LGT RAIN  43  37  79 SE10G16   29.78F
STAPLES        LGT RAIN  37  37 100 SE7       29.78R
LONG PRAIRIE   CLOUDY    39  39 100 CALM      29.76F
LITTLE FALLS   MIX PCPN  37  36  93 SE8       29.77S
LITCHFIELD     RAIN      43  43 100 E9        29.74F
BUFFALO        LGT RAIN  40  38  91 NE10      29.76F
MAPLE LAKE     LGT RAIN  41  40  97 E8        29.76F
$$
MNZ037-044-045-052-053-241700-
   East Central Minnesota

CITY           SKY/WX    TMP DP  RH WIND       PRES   REMARKS
PRINCETON      LGT RAIN  41  39  93 E7        29.78F
MORA           LGT RAIN  37  34  87 E9        29.82F
CAMBRIDGE      LGT RAIN  41  36  81 E6        29.77F
RUSH CITY      LGT RAIN  39  37  93 E6        29.81F
MOOSE LAKE     LGT RAIN  34  34 100 E5        29.83F WCI  30
HINCKLEY       LGT RAIN  37  37 100 E8        29.82F
CLOQUET        LGT SNOW  34  34 100 E10       29.85F WCI  26
MCGREGOR       CLOUDY    36  36 100 E12G20    29.82F
$$
MNZ071>073-080-081-089-090-097-098-241700-
   Southwest Minnesota

CITY           SKY/WX    TMP DP  RH WIND       PRES   REMARKS
MONTEVIDEO     LGT RAIN  43  43 100 NE3       29.74F
GRANITE FALLS  LGT RAIN  43  41  94 CALM      29.74S
CANBY          LGT RAIN  42  42  99 N8        29.74F
MARSHALL       CLOUDY    45  39  81 NW14      29.72S
REDWOOD FALLS  LGT RAIN  44  42  93 SE5       29.71F FOG
OLIVIA         LGT RAIN  43  41  93 E3        29.72S
PIPESTONE      CLOUDY    46  45  93 N15G21    29.70S
WINDOM         DRIZZLE   45  43  93 CALM      29.69S
WORTHINGTON    CLOUDY    45  39  81 NW10      29.70F
JACKSON        CLOUDY    43  41  93 CALM      29.69R FOG
TRACY          LGT RAIN  44  42  94 NW12      29.72R
SLAYTON        DRIZZLE   44  44  99 NW15      29.70S
$$
MNZ065>067-074>077-082>085-091>093-241700-
   South Central Minnesota

CITY           SKY/WX    TMP DP  RH WIND       PRES   REMARKS
MANKATO        CLOUDY    43  39  87 E8        29.70F
NEW ULM        DRIZZLE   43  43 100 E6        29.71S
ST JAMES       CLOUDY    43  41  93 NE3       29.70S FOG
FAIRMONT       CLOUDY    43  37  81 CALM      29.70R
GLENCOE        CLOUDY    42  39  89 E8        29.72F
FARIBAULT      LGT RAIN  45  37  76 E10G16    29.72S
OWATONNA       LGT RAIN  43  39  87 SE13      29.70R
WASECA         CLOUDY    41  36  81 E10G16    29.71R HAZE
ALBERT LEA     DRIZZLE   41  41 100 SE14G21   29.68R
$$
MNZ078>079-086>088-094>096-241700-
   Southeast Minnesota

CITY           SKY/WX    TMP DP  RH WIND       PRES   REMARKS
ROCHESTER      CLOUDY    41  37  86 SE21G28   29.70F
RED WING       LGT RAIN  43  39  87 SE13G20   29.74F
STANTON        RAIN      42  39  88 E9        29.71F
DODGE CENTER   CLOUDY    43  41  93 SE22      29.69F
WINONA         LGT RAIN  41  39  93 SE12G17   29.77F
AUSTIN         CLOUDY    43  39  87 SE18G26   29.68S
PRESTON        CLOUDY    41  38  90 SE13G21   29.73F
$$
ABBREVIATIONS USED IN REMARKS
   TC - TEMPERATURES IN CELSIUS
  WCI - WIND CHILL INDEX
   HX - HEAT INDEX
  VSB - VISIBILITY
$$


USA.gov is the U.S. government's official web portal to all federal, state and local government web resources and services.